Terminal Aerodrome Forecast
Issued by NWS Pueblo, CO

Home | Current Version | Previous Version | Text Only | Print | Product List | Glossary On
Versions: 1 2 3 4 5 6 7 8 9 10 11 12 13 14 15 16 17 18 19 20 21 22 23 24 25 26 27 28 29 30 31 32 33 34 35 36
000
FTUS45 KPUB 260520
TAFCOS
TAF
KCOS 260520Z 2606/2706 VRB06KT P6SM SCT150
     FM260900 03006KT P6SM SKC
     FM261600 16007KT P6SM SCT250
     FM262000 18020G31KT P6SM FEW250
     FM270200 14010KT P6SM BKN150=

USA.gov is the U.S. government's official web portal to all federal, state and local government web resources and services.